Aeroporto :
LOGIN :

Iscrizione | Disclaimer

   EN    FR    IT 

 










Sommario :    VFR   VFR Marginale   IFR   IFR Intensivo   IFR Molto Intensivo
Visibilità : 
Base nubi : 
>= 8 km
>= 3000ft
5 / 8 km
1000 / 3000 ft
1500m / 5 km
500 / 1000 ft
800 / 1500m
200 / 500 ft
< 800m
< 200 ft
Simboli :   Temporali  Nebbia  Neve Forte  Precipitazioni Forti  Vento > 20 kt
SIGMETs :   Varie  Temporali  Ghiacco  Turbolenza  Onda orograficha  Ceneri Vulcaniche







- Altitudine del aeroporto : 23 ft
- Codice IATA : XFW


EDHI - Hamburg Finkenwerder

ULTIMO METAR :
  • 270820Z 29015KT 9999 BKN021 16/12 Q1026

METARs OBSOLETI :
  • 270750Z 29013KT 270V330 9999 BKN020 16/12 Q1026
  • 270720Z 30012KT 270V330 9999 BKN022 16/11 Q1026
  • 270650Z 31010KT 280V360 9999 BKN022 15/11 Q1026
  • 270620Z 32010KT 280V350 9999 BKN022 15/10 Q1026
  • 270550Z 31011KT 280V340 9999 BKN021 15/10 Q1026

TAF TAF EDHI
Valido dal 27 a 09 ore il 27 a 18 ore UTC


270800Z 2709/2718 30013KT 9999 BKN020
TEMPO 2709/2717 30015G25KT
Nessun NOTAM noto per questo aeroporto.



MetMap, La meteo Aeronautica in un colpo d'occhio ! - Copyright ORBIFLY Dicembre 2007 - Disclaimer

ORBIFLY MET'MAP TEAM :

Programmazione e sviluppo : Alexandra Zaïnal
Concezione e sviluppo : Baudouin d'Aumeries
Co-Programmazione e sviluppo : Marc-Olivier Méhu
Supporto tecnico e logistico : Manuel Goepfert
Aiuto per la traduzione : Arnaldo La Scala

Contatto : metmap@orbifly.com




FONTI E CREDITI :

   NOAA